Location: Boiro
(42.6475°N, 8.8834°W)
Time: 07:12:17
(UTC+01:00)

Vanguard 1 - Pass Details

Date: 02 December 2021
Orbit: 652 x 3830 km, 34.2° (Epoch: 21 January)

Event Time Altitude Azimuth Distance (km) Brightness Sun altitude
Rises 03:04:30 0° 248° (WSW) 7,665 - -60.7°
Reaches altitude 10° 03:09:31 10° 246° (WSW) 6,812 - -60.0°
Maximum altitude 03:32:41 65° 171° (S) 3,796 - -56.3°
Exits shadow 03:37:10 57° 129° (SE) 3,781 12.7 -55.6°
Drops below altitude 10° 03:50:04 10° 95° (E) 5,334 14.1 -53.4°
Sets 03:53:25 0° 93° (E) 6,003 14.6 -52.9°
